Lid_Strength_Index
1 4 4 5 10 12 14 13 10 9 10 9 7 8 9 9 9 13 7 6 4 2 0 0 -1 -2 -1 -1 -1 -1 -1 -1 -1 -1 -1 -1 -1 -1 -1 -2 -2 -2 -2 -2 -2 -2 -2 -2 -2
3 3 5 8 14 15 14 12 11 10 9 8 7 7 8 9 7 8 8 6 5 2 1 2 0 -1 -1 -1 -1 -1 -1 -1 -1 -1 -1 -1 -1 -1 -2 -2 -2 -2 -2 -2 -2 -2 -2 -2 -2
2 3 7 11 14 16 14 12 12 9 8 8 8 6 8 10 8 8 7 6 6 3 2 2 1 0 -0 -1 -2 -1 -1 -1 -1 -1 -1 -1 -1 -1 -1 -2 -2 -2 -2 -2 -2 -2 -2 -1 -1
6 6 9 13 14 12 13 12 11 11 8 8 9 8 7 6 6 7 5 5 5 4 4 1 1 1 1 -0 -1 -1 -2 -1 -1 -1 -1 -1 -1 -1 -2 -2 -2 -2 -2 -2 -2 -2 -2 -1 -1
6 8 13 15 15 12 12 11 10 11 11 10 9 10 8 6 5 5 6 5 5 5 3 2 0 2 2 1 0 -1 -1 -2 -1 -1 -1 -1 -1 -1 -2 -1 -2 -2 -2 -2 -2 -2 -2 -1 -1
10 11 15 15 14 12 12 11 11 11 10 10 10 10 8 6 6 6 6 5 4 4 2 2 1 1 2 3 2 2 0 -1 -2 -2 -1 -1 -1 -2 -2 -2 -2 -2 -2 -2 -2 -2 -2 -1 -1
10 13 16 15 14 13 12 11 11 12 11 10 9 11 8 7 6 6 5 5 5 4 3 3 3 1 2 2 3 3 2 1 -1 -2 -1 -1 -1 -1 -1 -1 -2 -2 -2 -2 -2 -2 -2 -1 -1
11 13 15 15 15 14 12 11 10 10 11 8 8 11 11 8 6 6 6 5 5 5 4 4 3 2 1 2 2 2 3 3 2 -0 -1 0 0 -0 -0 -0 -1 -2 -2 -2 -2 -2 -2 -1 -1
10 15 16 15 14 13 11 12 10 9 11 9 8 8 8 7 6 7 7 7 6 5 4 4 4 3 2 1 0 2 2 3 3 1 1 1 -0 0 0 0 -0 -1 -1 -2 -2 -2 -2 -2 -1
13 15 14 13 13 12 11 11 11 11 10 10 9 8 7 7 8 8 8 8 7 7 5 4 4 3 3 2 1 0 1 1 2 2 0 -0 -0 0 -0 1 0 -0 -0 -1 -2 -2 -2 -1 0
12 14 12 11 10 10 11 11 10 11 12 11 11 10 8 8 8 9 9 8 8 7 5 5 4 3 3 3 2 2 1 0 1 1 1 -0 -0 1 1 0 1 -0 1 0 -1 -1 -0 1 1
14 12 11 10 10 10 11 10 11 10 10 9 10 9 9 9 9 9 9 8 7 7 6 5 4 4 4 3 3 3 3 2 0 1 1 1 0 0 1 1 1 1 1 1 0 0 1 0 1
14 13 11 10 10 11 10 11 11 11 10 9 8 9 10 10 9 9 8 8 7 7 6 6 4 4 4 4 4 4 4 4 3 2 2 2 1 0 0 0 1 1 1 1 1 1 1 2 2
12 12 11 11 11 10 11 11 11 11 9 10 9 10 10 10 10 9 9 8 7 7 7 5 5 4 4 5 5 5 4 4 4 2 1 2 1 0 0 0 1 1 1 1 1 2 1 2 2
12 14 13 12 11 11 11 14 12 10 9 10 10 11 10 10 10 10 9 9 8 7 7 6 5 5 5 5 5 5 5 4 4 4 2 2 2 0 0 1 1 1 1 1 2 2 2 2 2
14 14 16 13 11 11 13 17 11 10 10 11 11 11 11 10 10 10 9 8 7 7 7 6 5 5 5 6 5 5 5 4 4 3 3 2 3 0 0 1 1 1 0 1 1 2 3 3 2
16 19 17 14 11 12 13 15 11 10 10 11 11 12 11 11 11 11 11 9 7 7 7 6 5 5 6 6 5 6 5 5 4 4 3 3 1 2 1 1 1 0 1 1 2 2 4 4 3
18 19 17 17 13 13 14 13 11 10 11 11 12 12 11 11 12 11 10 9 8 8 7 6 5 5 6 6 6 6 5 5 4 3 4 3 2 2 1 1 0 1 0 1 2 2 3 3 3
16 17 18 15 12 15 15 14 12 11 11 12 12 12 12 12 11 11 11 10 9 9 8 6 5 5 6 7 7 6 6 5 4 3 3 3 1 2 0 1 1 0 1 1 1 2 3 3 3
15 18 18 16 13 15 15 14 12 12 11 11 12 12 12 12 12 11 11 10 10 9 8 6 5 6 6 6 6 5 5 5 4 3 2 3 2 1 0 1 1 0 1 1 2 2 3 3 3
17 18 20 18 15 14 15 17 14 12 11 11 11 11 11 12 13 12 11 11 11 10 8 6 6 7 7 6 6 4 4 4 4 3 3 2 1 0 0 1 0 0 1 2 1 1 2 3 3
18 15 16 16 18 21 16 22 19 14 13 12 11 11 12 13 12 12 11 11 10 9 7 6 6 7 7 6 6 4 4 4 2 2 1 1 0 0 0 0 0 0 1 1 1 1 1 2 3
17 15 16 16 18 19 19 22 18 15 15 13 12 11 12 13 13 13 12 11 10 9 8 6 6 8 7 7 6 4 2 2 1 1 1 2 1 0 0 0 0 1 1 1 1 1 1 1 3
14 16 16 17 18 24 22 21 20 18 15 15 12 12 13 13 13 12 12 11 10 10 9 6 7 8 8 7 7 5 4 4 3 2 3 2 2 2 1 1 1 1 1 1 1 2 3 4 4
16 18 24 24 25 24 19 20 18 14 12 13 12 13 14 13 13 13 13 12 11 10 10 7 7 9 8 8 8 7 5 5 4 4 4 4 4 4 3 3 3 3 3 3 4 4 4 5 6
18 18 21 25 24 23 20 21 17 13 12 12 12 13 13 14 13 14 14 13 12 10 10 9 8 9 9 8 8 8 7 6 6 5 5 5 5 5 5 4 4 5 4 5 5 6 6 7 7
18 20 18 21 24 24 22 18 15 14 14 13 14 14 14 14 14 14 14 13 12 11 10 10 8 8 9 9 9 8 8 7 8 7 7 7 6 5 6 6 6 7 6 6 7 7 8 9 9
17 16 21 22 27 26 22 20 19 16 15 14 14 14 14 14 14 14 14 13 12 11 11 10 8 8 9 9 9 9 9 8 8 8 8 8 8 7 7 7 8 8 8 8 9 9 10 10 11
19 20 19 19 21 22 24 21 16 15 14 14 13 13 14 15 15 15 14 13 12 11 11 11 10 8 9 10 9 9 9 9 8 9 9 9 9 9 9 9 10 10 10 10 10 11 11 12 12
17 19 18 21 22 22 21 21 15 14 13 13 13 12 14 14 15 15 14 14 13 12 12 11 10 9 8 9 10 10 10 10 10 10 10 10 11 10 11 11 11 11 11 11 11 12 11 12 12